Time,TemperatureF,DewpointF,PressureIn,WindDirection,WindDirectionDegrees,WindSpeedMPH,WindSpeedGustMPH,Humidity,HourlyPrecipIn,Conditions,Clouds,dailyrainin,SoftwareType,DateUTC
2013-03-31 00:31:00,33.4,24.3,29.98,NNE,22,0.0,-999.0,69,-99.99,,,0.00,Acu-Link.com,2013-03-31 04:31:00,
2013-03-31 00:46:00,32.5,23.5,29.98,NNE,22,0.0,-999.0,69,-99.99,,,0.00,Acu-Link.com,2013-03-31 04:46:00,
2013-03-31 01:01:00,32.4,24.4,29.98,NE,45,0.0,-999.0,72,-99.99,,,0.00,Acu-Link.com,2013-03-31 05:01:00,
2013-03-31 01:17:00,31.6,23.6,29.97,NE,45,0.0,-999.0,72,-99.99,,,0.00,Acu-Link.com,2013-03-31 05:17:00,
2013-03-31 01:38:00,30.9,23.6,29.97,NE,45,0.0,-999.0,74,-99.99,,,0.00,Acu-Link.com,2013-03-31 05:38:00,
2013-03-31 01:54:00,30.7,23.7,29.96,NE,45,0.0,-999.0,75,-99.99,,,0.00,Acu-Link.com,2013-03-31 05:54:00,
2013-03-31 02:09:00,30.7,23.7,29.96,NE,45,0.0,-999.0,75,-99.99,,,0.00,Acu-Link.com,2013-03-31 06:09:00,
2013-03-31 02:24:00,30.4,23.4,29.95,NE,45,0.0,-999.0,75,-99.99,,,0.00,Acu-Link.com,2013-03-31 06:24:00,
2013-03-31 02:39:00,30.4,23.4,29.96,NE,45,0.0,-999.0,75,-99.99,,,0.00,Acu-Link.com,2013-03-31 06:39:00,
2013-03-31 02:54:00,30.2,23.6,29.95,NE,45,0.0,-999.0,76,-99.99,,,0.00,Acu-Link.com,2013-03-31 06:54:00,
2013-03-31 03:09:00,29.8,23.2,29.95,South,180,0.0,-999.0,76,-99.99,,,0.00,Acu-Link.com,2013-03-31 07:09:00,
2013-03-31 03:25:00,29.5,22.9,29.94,North,0,0.0,-999.0,76,-99.99,,,0.00,Acu-Link.com,2013-03-31 07:25:00,
2013-03-31 03:41:00,29.7,23.4,29.93,North,0,0.0,-999.0,77,-99.99,,,0.00,Acu-Link.com,2013-03-31 07:41:00,
2013-03-31 04:15:00,29.7,23.4,29.92,North,0,0.0,-999.0,77,-99.99,,,0.00,Acu-Link.com,2013-03-31 08:15:00,
2013-03-31 04:31:00,29.3,23.0,29.92,North,0,0.0,-999.0,77,-99.99,,,0.00,Acu-Link.com,2013-03-31 08:31:00,
2013-03-31 04:49:00,29.3,23.0,29.91,NNE,22,0.0,-999.0,77,-99.99,,,0.00,Acu-Link.com,2013-03-31 08:49:00,
2013-03-31 05:05:00,29.8,23.8,29.90,SE,135,0.0,-999.0,78,-99.99,,,0.00,Acu-Link.com,2013-03-31 09:05:00,
2013-03-31 05:39:00,30.0,24.3,29.89,SE,135,0.0,-999.0,79,-99.99,,,0.00,Acu-Link.com,2013-03-31 09:39:00,
2013-03-31 05:54:00,30.0,24.3,29.89,NNW,337,0.0,-999.0,79,-99.99,,,0.00,Acu-Link.com,2013-03-31 09:54:00,
2013-03-31 06:56:00,30.9,24.6,29.87,NNE,22,0.0,-999.0,77,-99.99,,,0.00,Acu-Link.com,2013-03-31 10:56:00,
2013-03-31 07:32:00,31.3,24.6,29.86,SSE,157,0.0,-999.0,76,-99.99,,,0.00,Acu-Link.com,2013-03-31 11:32:00,
2013-03-31 07:47:00,32.0,25.0,29.86,NE,45,1.7,-999.0,75,-99.99,,,0.00,Acu-Link.com,2013-03-31 11:47:00,
2013-03-31 08:02:00,32.5,25.2,29.85,ENE,67,0.0,-999.0,74,-99.99,,,0.00,Acu-Link.com,2013-03-31 12:02:00,
2013-03-31 08:17:00,33.6,25.2,29.84,NNE,22,1.1,-999.0,71,-99.99,,,0.00,Acu-Link.com,2013-03-31 12:17:00,
2013-03-31 08:32:00,34.5,25.4,29.83,SE,135,1.1,-999.0,69,-99.99,,,0.00,Acu-Link.com,2013-03-31 12:32:00,
2013-03-31 08:47:00,35.6,26.1,29.83,NE,45,2.2,-999.0,68,-99.99,,,0.00,Acu-Link.com,2013-03-31 12:47:00,
2013-03-31 09:02:00,36.1,26.6,29.82,East,90,0.0,-999.0,68,-99.99,,,0.00,Acu-Link.com,2013-03-31 13:02:00,
2013-03-31 09:17:00,37.2,27.3,29.81,NNE,22,2.2,-999.0,67,-99.99,,,0.00,Acu-Link.com,2013-03-31 13:17:00,
2013-03-31 09:32:00,37.6,27.3,29.80,North,0,0.0,-999.0,66,-99.99,,,0.00,Acu-Link.com,2013-03-31 13:32:00,
2013-03-31 09:48:00,38.5,28.1,29.80,NNW,337,1.7,-999.0,66,-99.99,,,0.00,Acu-Link.com,2013-03-31 13:48:00,
2013-03-31 10:03:00,38.7,28.0,29.80,SSE,157,0.0,-999.0,65,-99.99,,,0.00,Acu-Link.com,2013-03-31 14:03:00,
2013-03-31 10:18:00,39.9,28.7,29.80,South,180,1.1,-999.0,64,-99.99,,,0.00,Acu-Link.com,2013-03-31 14:18:00,
2013-03-31 10:33:00,40.3,28.7,29.80,South,180,1.1,-999.0,63,-99.99,,,0.00,Acu-Link.com,2013-03-31 14:33:00,
2013-03-31 10:49:00,40.6,29.0,29.79,SSE,157,1.7,-999.0,63,-99.99,,,0.00,Acu-Link.com,2013-03-31 14:49:00,
2013-03-31 11:04:00,42.1,29.6,29.79,NW,315,0.0,-999.0,61,-99.99,,,0.00,Acu-Link.com,2013-03-31 15:04:00,
2013-03-31 11:19:00,41.7,31.2,29.79,WSW,247,1.7,-999.0,66,-99.99,,,0.00,Acu-Link.com,2013-03-31 15:19:00,
2013-03-31 11:34:00,41.4,33.1,29.79,NW,315,1.1,-999.0,72,-99.99,,,0.00,Acu-Link.com,2013-03-31 15:34:00,
2013-03-31 11:49:00,41.2,33.9,29.78,ESE,112,0.0,-999.0,75,-99.99,,,0.01,Acu-Link.com,2013-03-31 15:49:00,
2013-03-31 12:48:00,42.6,38.1,29.76,West,270,3.7,-999.0,84,-99.99,,,0.02,Acu-Link.com,2013-03-31 16:48:00,